,

(GMT )
Argentia

Weather History for CWAR - September, 2012

Change the Weather History Date:

Friday, September 7, 2012

  Actual Average Record
Temperature  
Mean Temperature 60 °F -  
Max Temperature 65 °F - - ()
Min Temperature 56 °F - - ()
Degree Days  
Heating Degree Days 4    
Growing Degree Days 10 (Base 50)    
Moisture  
Dew Point 57 °F    
Average Humidity 91    
Maximum Humidity 95    
Minimum Humidity 85    
Precipitation  
Precipitation 0.02 in - - ()
Sea Level Pressure  
Sea Level Pressure 29.73 in    
Wind  
Wind Speed 18 mph ()    
Max Wind Speed 33 mph    
Max Gust Speed 43 mph    
T = Trace of Precipitation, MM = Missing Value Source: Averaged Metar Reports

Daily Weather History Graph

Daily Weather History Graph

Search for Another Location

Airport or City:

Trip Planner

Search our weather history database for the weather conditions in past years. The results will help you decide how hot, cold, wet, or windy it might be!

Date:

Astronomy

Sep. 07, 2012 Rise Set
Actual Time 6:33 AM NDT 7:33 PM NDT
Civil Twilight 6:02 AM NDT 8:04 PM NDT
Nautical Twilight 5:24 AM NDT 8:41 PM NDT
Astronomical Twilight 4:45 AM NDT 9:21 PM NDT
Moon 10:54 PM NDT (9/7) 1:49 PM NDT (9/7)
Length of Visible Light 14h 02m
Length of Day
12h 59m
Waning Gibbous, 59% of the Moon is Illuminated
Sep 7
Waning Gibbous
Sep 8
Last Quarter
Sep 15
New
Sep 22
First Quarter
Sep 30
Full

Hourly Weather History & Observations

Time (NDT) Temp. Dew Point Humidity Pressure Visibility Wind Dir Wind Speed Gust Speed Precip Events Conditions
12:30 AM 57 °F 54 °F 85% 29.87 in - ESE 23.0 mph - -  
12:30 AM 56.7 °F 53.8 °F 90% 29.87 in - ESE 23.0 mph 32.2 mph N/A   Unknown
1:30 AM 56.7 °F 54.1 °F 91% 29.86 in - ESE 18.4 mph 27.6 mph 0.11 in   Unknown
2:30 AM 56.8 °F 54.3 °F 91% 29.78 in - East 26.5 mph 39.1 mph 0.03 in   Unknown
3:30 AM 57 °F 55 °F 89% 29.75 in - ESE 27.6 mph - -  
3:30 AM 57.2 °F 54.7 °F 91% 29.75 in - ESE 27.6 mph 40.3 mph N/A   Unknown
4:30 AM 58.3 °F 55.4 °F 90% 29.72 in - ESE 31.1 mph 42.6 mph N/A   Unknown
5:30 AM 58.6 °F 55.6 °F 90% 29.68 in - ESE 33.4 mph 40.3 mph N/A   Unknown
6:30 AM 60 °F 57 °F 85% 29.68 in - ESE 32.2 mph - -  
6:30 AM 59.5 °F 56.7 °F 90% 29.68 in - ESE 32.2 mph 40.3 mph N/A   Unknown
7:30 AM 60.3 °F 57.6 °F 91% 29.67 in - ESE 27.6 mph 34.5 mph N/A   Unknown
8:30 AM 61.5 °F 58.8 °F 91% 29.68 in - ESE 19.6 mph 26.5 mph N/A   Unknown
9:30 AM 64 °F 61 °F 87% 29.68 in - ESE 10.4 mph - -  
9:30 AM 63.9 °F 61.0 °F 90% 29.68 in - ESE 10.4 mph - N/A   Unknown
10:30 AM 61.5 °F 59.2 °F 92% 29.69 in - SSW 10.4 mph - N/A   Unknown
11:30 AM 60.4 °F 59.0 °F 95% 29.70 in - SSW 12.7 mph - N/A   Unknown
12:30 PM 63 °F 61 °F 90% 29.69 in - SSW 15.0 mph - -  
12:30 PM 62.8 °F 60.8 °F 93% 29.69 in - SSW 15.0 mph - 0.02 in   Unknown
1:30 PM 64.0 °F 60.1 °F 87% 29.68 in - SSW 12.7 mph - N/A   Unknown
2:30 PM 63.0 °F 59.4 °F 88% 29.68 in - SSW 12.7 mph - N/A   Unknown
3:30 PM 62 °F 60 °F 89% 29.68 in - SSW 12.7 mph - -  
3:30 PM 62.1 °F 59.5 °F 91% 29.68 in - SSW 12.7 mph - N/A   Unknown
4:30 PM 62.4 °F 60.8 °F 94% 29.69 in - SW 5.8 mph - N/A   Unknown
5:30 PM 61.5 °F 59.4 °F 93% 29.71 in - North 11.5 mph - N/A   Unknown
6:30 PM 60 °F 58 °F 89% 29.73 in - NNE 9.2 mph - -  
6:30 PM 59.7 °F 57.6 °F 93% 29.73 in - NNE 9.2 mph - N/A   Unknown
7:30 PM 57.4 °F 55.6 °F 94% 29.76 in - NNE 10.4 mph - N/A   Unknown
8:30 PM 56.3 °F 54.7 °F 94% 29.78 in - NNE 12.7 mph - N/A   Unknown
9:30 PM 56 °F 54 °F 92% 29.80 in - NNE 11.5 mph - -  
9:30 PM 56.1 °F 54.3 °F 94% 29.80 in - NNE 11.5 mph - N/A   Unknown
10:30 PM 56.3 °F 54.3 °F 93% 29.83 in - NNE 9.2 mph - N/A   Unknown
11:30 PM 56.5 °F 53.6 °F 90% 29.83 in - North 11.5 mph - N/A   Unknown